Date,TemperatureHighF,TemperatureAvgF,TemperatureLowF,DewpointHighF,DewpointAvgF,DewpointLowF,HumidityHigh,HumidityAvg,HumidityLow,PressureMaxIn,PressureMinIn,WindSpeedMaxMPH,WindSpeedAvgMPH,GustSpeedMaxMPH,PrecipitationSumIn
2013-10-1,83.0,82.2,82.0,75.0,74.3,74.0,78,76,75,0.00,40.00,11,9,0,0.00
2013-10-2,84.0,80.9,76.0,78.0,76.3,74.0,97,86,76,0.00,40.00,11,6,0,1.43
2013-10-3,85.0,79.8,76.0,79.0,75.7,73.0,98,87,76,0.00,40.00,12,5,0,2.51
2013-10-4,87.0,80.4,74.0,77.0,73.6,71.0,98,80,65,0.00,40.00,9,4,0,0.00
2013-10-5,89.0,81.2,73.0,75.0,72.8,69.0,94,77,52,0.00,40.00,9,5,0,0.00
2013-10-6,90.0,82.5,75.0,76.0,73.4,70.0,95,75,55,0.00,40.00,8,3,0,0.00
2013-10-7,92.0,80.4,73.0,77.0,74.1,70.0,97,82,57,0.00,40.00,17,4,0,0.55
2013-10-8,89.0,82.4,76.0,80.0,76.2,71.0,96,82,67,0.00,40.00,9,5,0,0.00
2013-10-9,86.0,78.0,72.0,78.0,74.1,71.0,96,88,72,0.00,40.00,8,3,0,0.00
2013-10-10,88.0,80.6,73.0,76.0,73.1,69.0,95,78,60,0.00,40.00,11,5,0,0.00
2013-10-11,86.0,77.7,70.0,73.0,70.4,68.0,96,79,60,0.00,40.00,10,4,0,0.00
2013-10-12,86.0,78.1,69.0,72.0,69.5,67.0,97,76,54,0.00,40.00,9,3,0,0.00
2013-10-13,86.0,77.6,72.0,74.0,68.1,-99.9,96,75,53,0.00,40.00,9,4,0,0.00
2013-10-14,86.0,78.5,72.0,72.0,69.6,67.0,90,74,58,0.00,40.00,11,4,0,0.00
2013-10-15,87.0,79.1,73.0,74.0,71.4,70.0,94,78,60,0.00,40.00,11,4,0,0.00
2013-10-16,86.0,78.8,72.0,74.0,71.9,70.0,95,79,65,0.00,40.00,11,5,0,0.00
2013-10-17,87.0,79.4,71.0,75.0,72.8,70.0,97,81,64,0.00,40.00,9,4,0,0.00
2013-10-18,87.0,80.2,72.0,76.0,73.4,71.0,98,80,66,0.00,40.00,9,4,0,0.00
2013-10-19,89.0,83.1,76.0,76.0,74.6,73.0,90,76,63,0.00,40.00,8,5,0,0.00
2013-10-20,90.0,81.5,78.0,79.0,75.0,-99.9,94,82,60,0.00,40.00,9,4,0,0.03
2013-10-21,90.0,83.6,79.0,79.0,76.7,75.0,92,80,64,0.00,40.00,9,5,0,0.00
2013-10-22,91.0,82.8,75.0,78.0,76.3,73.0,97,81,62,0.00,40.00,11,4,0,0.00
2013-10-23,88.0,81.6,78.0,79.0,75.9,70.0,95,83,66,0.00,40.00,7,4,0,1.70